Simultaneous Nadir Overpasses (SNOs) Predictions

Prediction of SNOs between NOAA-19 and METOP-C Satellite Orbit:

Table of predicted SNOs for the next 14.0 days since TLE Epoch: 12/18/2021
Index Date (NOAA-19) Time (NOAA-19) Lat,Lon (NOAA-19) SZA (NOAA-19 ) Date (METOP-C) Time (METOP-C) Lat,Lon (METOP-C) SZA (METOP-C ) Distance(km) Time Diff (sec)
1 12/23/2021 12:32:28 -80.72,-156.92 74.62 12/23/2021 12:33:26 -80.71,-156.87 74.61 1.79 58
2 12/23/2021 13:23:23 80.71, 10.62 105.40 12/23/2021 13:24:07 80.72, 10.67 105.42 1.18 44
3 12/23/2021 14:14:27 -80.71, 177.99 74.60 12/23/2021 14:14:47 -80.72, 178.00 74.58 1.27 20
4 12/23/2021 15:05:23 80.71, -14.83 105.40 12/23/2021 15:05:29 80.71, -14.81 105.40 0.34 6
5 12/23/2021 15:56:27 -80.71, 152.55 74.60 12/23/2021 15:56:09 -80.71, 152.53 74.60 0.67 18
6 12/23/2021 16:47:23 80.71, -40.27 105.40 12/23/2021 16:46:51 80.70, -40.28 105.38 0.70 32
7 12/23/2021 17:38:27 -80.70, 127.10 74.60 12/23/2021 17:37:31 -80.70, 127.06 74.62 0.88 56



Historial Predications of SNOs between NOAA-19 and METOP-C
